Tracking 17694 objects as of 27-May-2016
HD Live streaming from Space Station
objects crossing your sky now

COSMOS 1596

Track COSMOS 1596 now!
COSMOS 1596 is classified as:


NORAD ID: 15267
Int'l Code: 1984-096A
Perigee: 4,724.5 km
Apogee: 35,647.8 km
Inclination: 68.0 °
Period: 717.8 minutes
Semi major axis: 26557 km
RCS: 8.4284 m2 (large)
Launch date: September 7, 1984
Source: Commonwealth of Independent States (former USSR) (CIS)
Launch site: PLESETSK MISSILE AND SPACE COMPLEX (PKMTR)
Your satellite tracking list
Your tracking list is empty





NASA's NSSDC Master Catalog

Two Line Element Set (TLE):
1 15267U 84096A   16147.86606324  .00000730  00000-0 -59469+0 0  9995
2 15267  68.0046  26.6509 5822017  99.0448   5.1256  2.00607558232384
Source of the keplerian elements: AFSPC

N2YO: 494